Weather History for KFOT - October, 2013

Change the Weather History Date:

Wednesday, October 2, 2013

  Actual Average (KEKA) Record (KEKA)
Temperature  
Mean Temperature 56 °F 56 °F  
Max Temperature 62 °F 63 °F 80 °F (1980)
Min Temperature 50 °F 48 °F 40 °F (2002)
Degree Days  
Heating Degree Days 9 9  
Month to date heating degree days 18  
Since 1 July heating degree days 683  
Cooling Degree Days 0 0  
Month to date cooling degree days 0  
Year to date cooling degree days 0  
Growing Degree Days 6 (Base 50)    
Moisture  
Dew Point 46 °F    
Average Humidity 75    
Maximum Humidity 94    
Minimum Humidity 42    
Precipitation  
Precipitation 0.00 in 0.04 in 0.92 in (1922)
Month to date precipitation 0.07  
Year to date precipitation 24.43  
Since 1 July precipitation 1.15  
Snow  
Snow 0.00 in 0.00 in 0.00 in (2002)
Month to date snowfall 0.0  
Since 1 July snowfall 0.0  
Since 1 September snowfall 0.0  
Snow Depth -    
Sea Level Pressure  
Sea Level Pressure 30.14 in    
Wind  
Wind Speed 8 mph (NW)    
Max Wind Speed 21 mph    
Max Gust Speed 26 mph    
Visibility 10 miles    
Events      
T = Trace of Precipitation, MM = Missing Value Source: NWS Daily Summary

Daily Weather History Graph

Daily Weather History Graph

Search for Another Location

Airport or City:

Trip Planner

Search our weather history database for the weather conditions in past years. The results will help you decide how hot, cold, wet, or windy it might be!

Date:

Astronomy

Oct. 02, 2013 Rise Set
Actual Time 7:14 AM PDT 6:56 PM PDT
Civil Twilight 6:47 AM PDT 7:23 PM PDT
Nautical Twilight 6:15 AM PDT 7:55 PM PDT
Astronomical Twilight 5:43 AM PDT 8:27 PM PDT
Moon 4:52 AM PDT 5:35 PM PDT
Length of Visible Light 12h 36m
Length of Day
11h 42m
Waning Crescent, 6% of the Moon is Illuminated
Oct 2
Waning Crescent
Oct 4
New
Oct 11
First Quarter
Oct 18
Full
Oct 26
Last Quarter

Hourly Weather History & Observations

Time (PDT) Temp. Dew Point Humidity Pressure Visibility Wind Dir Wind Speed Gust Speed Precip Events Conditions
12:15 AM 53.6 °F 50.0 °F 88% 30.11 in 10.0 mi WNW 5.8 mph - N/A   Clear
12:35 AM 53.6 °F 50.0 °F 88% 30.10 in 10.0 mi WNW 5.8 mph - N/A   Clear
12:55 AM 53.6 °F 50.0 °F 88% 30.10 in 10.0 mi NW 6.9 mph - N/A   Clear
1:15 AM 51.8 °F 50.0 °F 94% 30.09 in 10.0 mi NW 6.9 mph - N/A   Clear
1:35 AM 51.8 °F 50.0 °F 94% 30.10 in 10.0 mi NW 4.6 mph - N/A   Clear
1:55 AM 51.8 °F 50.0 °F 94% 30.10 in 10.0 mi NW 3.5 mph - N/A   Clear
2:15 AM 51.8 °F 50.0 °F 94% 30.09 in 10.0 mi WNW 3.5 mph - N/A   Clear
2:35 AM 51.8 °F 50.0 °F 94% 30.09 in 10.0 mi WNW 6.9 mph - N/A   Clear
2:55 AM 51.8 °F 50.0 °F 94% 30.08 in 10.0 mi WNW 8.1 mph - N/A   Clear
3:15 AM 51.8 °F 50.0 °F 94% 30.08 in 8.0 mi WNW 8.1 mph - N/A   Clear
3:35 AM 50.0 °F 48.2 °F 94% 30.08 in 9.0 mi West 5.8 mph - N/A   Clear
3:55 AM 50.0 °F 48.2 °F 94% 30.08 in 8.0 mi WNW 5.8 mph - N/A   Clear
4:15 AM 50.0 °F 48.2 °F 94% 30.08 in 8.0 mi NW 5.8 mph - N/A   Clear
4:35 AM 50.0 °F 48.2 °F 94% 30.08 in 9.0 mi WNW 6.9 mph - N/A   Clear
4:55 AM 50.0 °F 48.2 °F 94% 30.09 in 8.0 mi NW 6.9 mph - N/A   Clear
5:15 AM 50.0 °F 48.2 °F 94% 30.09 in 10.0 mi NW 6.9 mph - N/A   Clear
5:35 AM 50.0 °F 48.2 °F 94% 30.09 in 10.0 mi NW 6.9 mph - N/A   Clear
5:55 AM 50.0 °F 48.2 °F 94% 30.09 in 10.0 mi NW 6.9 mph - N/A   Clear
6:15 AM 50.0 °F 48.2 °F 94% 30.10 in 10.0 mi NW 8.1 mph - N/A   Clear
6:35 AM 50.0 °F 48.2 °F 94% 30.11 in 10.0 mi NW 9.2 mph - N/A   Clear
6:55 AM 50.0 °F 48.2 °F 94% 30.11 in 10.0 mi NW 8.1 mph - N/A   Clear
7:15 AM 50.0 °F 48.2 °F 94% 30.12 in 10.0 mi NW 6.9 mph - N/A   Clear
7:35 AM 50.0 °F 48.2 °F 94% 30.12 in 10.0 mi WNW 8.1 mph - N/A   Clear
7:55 AM 50.0 °F 48.2 °F 94% 30.13 in 10.0 mi WNW 8.1 mph - N/A   Clear
8:15 AM 50.0 °F 48.2 °F 94% 30.14 in 10.0 mi WNW 6.9 mph - N/A   Clear
8:35 AM 51.8 °F 48.2 °F 88% 30.14 in 10.0 mi NW 5.8 mph - N/A   Clear
8:55 AM 53.6 °F 48.2 °F 82% 30.15 in 10.0 mi NNW 8.1 mph - N/A   Clear
9:15 AM 53.6 °F 48.2 °F 82% 30.15 in 10.0 mi NNW 9.2 mph - N/A   Clear
9:35 AM 55.4 °F 48.2 °F 77% 30.15 in 10.0 mi NNW 10.4 mph - N/A   Clear
9:55 AM 55.4 °F 46.4 °F 72% 30.16 in 10.0 mi NNW 10.4 mph - N/A   Clear
10:15 AM 57.2 °F 44.6 °F 63% 30.16 in 10.0 mi NNW 15.0 mph - N/A   Clear
10:35 AM 57.2 °F 44.6 °F 63% 30.16 in 10.0 mi NNW 15.0 mph - N/A   Clear
10:55 AM 59.0 °F 41.0 °F 51% 30.16 in 10.0 mi North 13.8 mph 18.4 mph N/A   Clear
11:15 AM 59.0 °F 39.2 °F 48% 30.16 in 10.0 mi NNW 11.5 mph - N/A   Clear
11:35 AM 60.8 °F 39.2 °F 45% 30.16 in 10.0 mi NNW 11.5 mph - N/A   Clear
11:55 AM 60.8 °F 41.0 °F 48% 30.16 in 10.0 mi NW 16.1 mph 19.6 mph N/A   Clear
12:15 PM 60.8 °F 41.0 °F 48% 30.16 in 10.0 mi NW 16.1 mph 23.0 mph N/A   Clear
12:35 PM 60.8 °F 41.0 °F 48% 30.16 in 10.0 mi NW 13.8 mph 21.9 mph N/A   Clear
12:55 PM 62.6 °F 39.2 °F 42% 30.16 in 10.0 mi North 17.3 mph 25.3 mph N/A   Clear
1:15 PM 62.6 °F 39.2 °F 42% 30.15 in 10.0 mi North 16.1 mph 26.5 mph N/A   Clear
1:35 PM 62.6 °F 41.0 °F 45% 30.16 in 10.0 mi NNW 16.1 mph - N/A   Clear
1:55 PM 60.8 °F 39.2 °F 45% 30.15 in 10.0 mi North 18.4 mph 24.2 mph N/A   Clear
2:15 PM 60.8 °F 41.0 °F 48% 30.15 in 10.0 mi NNW 16.1 mph 21.9 mph N/A   Clear
2:35 PM 62.6 °F 39.2 °F 42% 30.15 in 10.0 mi NNW 20.7 mph 25.3 mph N/A   Clear
2:55 PM 62.6 °F 39.2 °F 42% 30.15 in 10.0 mi NNW 19.6 mph 25.3 mph N/A   Clear
3:15 PM 60.8 °F 41.0 °F 48% 30.15 in 10.0 mi NNW 17.3 mph - N/A   Clear
3:35 PM 60.8 °F 41.0 °F 48% 30.16 in 10.0 mi NW 17.3 mph 21.9 mph N/A   Clear
3:55 PM 60.8 °F 41.0 °F 48% 30.15 in 10.0 mi NNW 18.4 mph - N/A   Clear
4:15 PM 59.0 °F 41.0 °F 51% 30.16 in 10.0 mi NNW 16.1 mph 21.9 mph N/A   Clear
4:35 PM 59.0 °F 41.0 °F 51% 30.16 in 10.0 mi NNW 17.3 mph 20.7 mph N/A   Clear
4:55 PM 59.0 °F 42.8 °F 55% 30.15 in 10.0 mi North 15.0 mph - N/A   Clear
5:15 PM 57.2 °F 44.6 °F 63% 30.16 in 10.0 mi NNW 12.7 mph 18.4 mph N/A   Clear
5:35 PM 57.2 °F 46.4 °F 67% 30.16 in 10.0 mi NNW 11.5 mph - N/A   Clear
5:55 PM 57.2 °F 46.4 °F 67% 30.16 in 10.0 mi NNW 12.7 mph - N/A   Clear
6:15 PM 57.2 °F 46.4 °F 67% 30.16 in 10.0 mi NNW 15.0 mph 18.4 mph N/A   Clear
6:35 PM 55.4 °F 44.6 °F 67% 30.17 in 10.0 mi NNW 13.8 mph - N/A   Clear
6:55 PM 55.4 °F 44.6 °F 67% 30.17 in 10.0 mi NNW 10.4 mph - N/A   Clear
7:15 PM 53.6 °F 46.4 °F 77% 30.18 in 10.0 mi NNW 9.2 mph - N/A   Clear
7:35 PM 53.6 °F 46.4 °F 77% 30.18 in 10.0 mi NNW 6.9 mph - N/A   Clear
7:55 PM 51.8 °F 46.4 °F 82% 30.18 in 10.0 mi NW 5.8 mph - N/A   Clear
8:15 PM 51.8 °F 46.4 °F 82% 30.19 in 10.0 mi NW 5.8 mph - N/A   Clear
8:35 PM 51.8 °F 46.4 °F 82% 30.19 in 10.0 mi WNW 5.8 mph - N/A   Clear
8:55 PM 51.8 °F 46.4 °F 82% 30.19 in 10.0 mi Calm Calm - N/A   Clear
9:15 PM 51.8 °F 46.4 °F 82% 30.19 in 10.0 mi NW 3.5 mph - N/A   Clear
9:35 PM 51.8 °F 46.4 °F 82% 30.19 in 10.0 mi Calm Calm - N/A   Clear
9:55 PM 51.8 °F 46.4 °F 82% 30.20 in 10.0 mi NW 4.6 mph - N/A   Clear
10:15 PM 50.0 °F 46.4 °F 87% 30.21 in 10.0 mi WNW 3.5 mph - N/A   Clear
10:35 PM 50.0 °F 46.4 °F 87% 30.20 in 10.0 mi WNW 3.5 mph - N/A   Clear
10:55 PM 50.0 °F 46.4 °F 87% 30.21 in 10.0 mi WNW 3.5 mph - N/A   Clear
11:15 PM 50.0 °F 46.4 °F 87% 30.21 in 10.0 mi Calm Calm - N/A   Clear
11:35 PM 50.0 °F 46.4 °F 87% 30.21 in 10.0 mi SW 3.5 mph - N/A   Clear
11:55 PM 50.0 °F 46.4 °F 87% 30.21 in 10.0 mi Calm Calm - N/A   Clear